Location: Unspecified
(43.3830°N, 0.0000°E)
Time: 15:26:50
(UTC+00:00)

Vanguard 2 - Pass Details

Date: 19 June 2019
Orbit: 553 x 2938 km, 32.9° (Epoch: 20 August)

Event Time Altitude Azimuth Distance (km) Brightness Sun altitude
Rises 11:12:04 0° 255° (WSW) 3,942 11.1 67.6°
Reaches altitude 10° 11:14:28 10° 249° (WSW) 3,235 10.8 67.8°
Maximum altitude 11:22:28 47° 178° (S) 2,198 11.3 68.5°
Drops below altitude 10° 11:35:22 10° 111° (ESE) 5,108 12.0 69.3°
Sets 11:40:14 0° 107° (ESE) 6,402 12.4 69.6°
